Temperature
23 23 23 22 22 22 21 21 21 21 20 20 20 20 20 20 19 19 19 19 19 19 19 19 19 19 19 19 19 19 19 19 19 19 18 18 18 19 18 18 18 18 18
22 22 22 22 22 22 22 21 21 21 20 20 20 20 20 19 19 19 19 19 19 19 19 19 19 19 19 19 19 19 19 18 18 18 18 18 18 18 18 18 18 18 18
22 22 22 22 22 22 22 21 21 21 21 20 20 20 20 19 19 19 19 19 19 19 19 19 19 19 19 19 19 19 19 19 19 18 18 18 18 18 18 18 18 18 18
22 22 22 22 22 22 22 21 21 21 21 20 20 20 20 19 19 19 19 19 19 19 19 19 19 19 19 19 19 19 19 19 19 19 18 18 18 18 18 18 18 18 18
22 22 22 22 22 22 22 21 21 21 20 20 20 20 20 19 19 19 19 19 19 19 19 19 19 19 19 19 19 19 19 19 19 19 19 19 18 18 18 18 18 18 18
22 22 22 22 22 22 21 21 21 21 20 20 20 20 19 19 19 19 19 19 19 19 19 19 19 19 19 19 19 19 19 19 18 18 18 18 18 18 18 18 17 17 17
22 22 22 21 22 21 21 21 21 20 20 20 20 20 19 19 19 19 19 19 19 19 19 19 19 19 19 19 19 19 18 18 18 18 18 18 18 18 18 18 17 17 17
22 22 22 22 21 21 21 21 20 20 20 20 20 19 19 19 19 19 19 19 19 19 18 18 18 18 18 18 18 18 18 18 18 18 18 18 18 18 18 18 17 17 17
22 22 22 22 21 21 21 21 21 20 20 20 20 19 19 19 19 19 19 19 18 18 18 18 18 18 18 18 18 18 18 18 18 18 18 18 18 18 17 17 17 17 16
21 21 21 21 21 21 21 21 21 20 20 20 19 19 19 19 18 18 18 18 18 18 18 18 18 18 18 18 18 18 18 18 18 18 18 18 18 17 17 17 17 17 17
21 21 21 21 21 21 20 20 20 20 19 19 19 19 19 19 18 18 18 18 18 18 18 18 18 18 18 17 17 18 18 18 18 18 17 17 17 17 17 17 17 17 17
21 21 21 20 20 20 20 20 20 19 19 19 19 18 18 18 18 18 18 18 18 18 17 17 17 17 17 17 17 17 17 17 17 17 17 17 17 17 17 17 17 17 16
21 21 20 20 20 20 20 19 19 19 19 19 18 18 18 18 18 18 18 18 17 17 17 17 17 17 17 17 17 17 17 17 17 17 17 17 16 16 16 16 16 16 16
20 20 20 20 20 20 19 19 19 19 18 18 18 18 18 18 18 17 17 17 17 17 17 17 17 17 17 17 17 17 17 16 16 16 16 16 16 16 16 16 16 16 16
20 20 20 20 20 19 19 19 19 18 18 18 18 18 17 17 17 17 17 17 17 17 16 16 16 16 16 16 16 16 16 16 16 16 16 16 16 16 16 15 15 15 15
20 20 20 20 20 19 19 19 18 18 18 18 18 17 17 17 17 17 17 17 16 16 16 16 16 16 16 16 16 16 16 16 15 15 15 15 15 15 15 15 15 15 14
20 20 20 20 19 19 19 19 18 18 18 18 17 17 17 17 16 16 16 16 16 16 16 16 16 16 16 16 15 15 15 15 15 15 15 15 15 15 15 15 14 14 14
20 20 19 19 19 19 19 18 18 18 17 17 17 17 17 16 16 16 16 16 15 15 15 15 15 15 15 15 15 15 15 15 15 15 15 14 14 14 14 14 14 14 14
20 19 19 19 19 18 18 18 18 17 17 17 17 17 16 16 16 16 16 15 15 15 15 15 15 15 15 15 15 15 15 15 14 14 14 14 14 14 14 14 14 14 14
19 19 19 19 18 18 18 18 17 17 17 17 17 16 16 16 16 16 16 15 15 15 15 15 15 14 14 14 14 14 14 14 14 14 14 14 14 14 14 13 13 13 13
19 19 19 18 18 18 17 17 17 17 16 16 16 16 16 16 15 15 15 15 15 15 15 14 14 14 14 14 14 14 14 14 14 14 14 14 14 13 13 13 13 13 13
18 18 18 18 18 17 17 17 16 16 16 16 16 16 16 15 15 15 15 14 14 14 14 14 14 14 14 14 14 13 13 13 13 13 13 13 13 13 13 13 13 13 12
18 18 17 17 17 17 16 16 16 16 16 16 15 15 15 15 15 14 14 14 14 14 13 13 13 13 13 13 13 13 13 13 13 13 13 13 13 13 13 13 12 12 12
17 17 17 16 16 16 16 16 16 16 15 15 15 15 15 14 14 14 14 14 13 13 13 13 13 13 13 13 13 13 13 13 13 13 13 13 13 12 12 12 12 12 12
16 16 16 16 15 15 15 15 15 15 15 15 15 14 14 14 14 14 14 13 13 13 13 13 13 13 13 13 13 13 13 13 13 13 13 12 12 12 12 12 12 12 11
16 15 15 15 15 15 14 14 14 14 14 14 14 14 14 14 13 13 13 13 13 13 13 13 13 13 13 13 13 13 13 13 12 12 12 12 12 12 12 11 11 11 11
Wind_Speed
7 7 8 9 9 7 7 6 6 4 4 3 3 2 2 1 1 1 2 3 3 3 3 2 2 2 2 1 1 1 1 1 1 2 2 2 1 0 2 2 3 3 5
6 7 7 8 8 8 7 7 6 5 4 3 2 2 2 1 1 1 2 2 3 3 3 3 2 2 2 2 1 1 1 0 1 2 2 1 3 2 1 1 3 3 3
10 9 8 7 7 7 7 7 6 6 5 4 3 3 3 2 2 1 1 1 2 3 3 3 2 1 2 1 1 1 2 1 1 1 3 2 2 2 2 1 1 2 2
9 8 8 7 8 7 7 6 6 6 5 5 4 4 3 2 1 1 1 0 1 2 3 2 2 2 2 1 1 1 1 2 1 1 1 2 4 2 1 2 1 1 1
10 9 9 9 7 7 6 6 5 5 5 5 5 4 3 2 1 1 1 1 1 1 1 2 2 1 1 1 1 1 1 1 1 1 1 0 1 2 2 1 2 2 1
9 9 8 7 6 6 5 6 6 5 5 5 4 5 4 3 3 2 1 0 1 0 0 1 1 1 1 1 1 1 2 1 1 1 1 2 2 2 2 2 2 2 2
8 8 8 7 7 6 5 5 6 5 4 5 4 4 4 4 4 3 2 1 0 0 1 1 1 1 1 1 1 1 1 1 1 1 1 1 2 2 3 3 1 1 2
7 9 9 9 8 7 6 6 6 4 4 4 4 4 4 3 2 2 2 2 1 1 1 1 1 0 1 1 1 1 0 1 1 1 1 0 1 1 2 3 2 0 2
7 7 8 8 7 7 6 7 6 5 4 5 4 4 3 3 2 2 2 1 1 1 1 1 1 1 1 1 1 1 0 1 1 0 1 0 1 0 1 1 3 3 2
6 6 6 6 6 6 5 5 6 5 4 4 4 3 3 3 3 2 2 2 1 1 1 1 1 1 1 1 1 1 0 1 0 0 1 1 1 1 0 0 1 2 3
6 6 6 5 6 6 5 4 4 3 3 3 3 3 3 3 3 3 2 2 1 1 1 2 2 2 1 1 1 1 1 1 0 1 1 1 1 1 1 0 0 1 2
6 6 6 5 5 5 5 5 4 4 3 3 3 3 2 2 2 2 2 2 2 1 1 1 2 2 1 1 1 0 0 1 0 0 1 1 1 1 1 1 0 0 1
7 6 5 5 5 5 5 4 4 4 4 4 3 2 2 2 3 3 2 2 2 1 1 1 2 2 1 0 0 1 1 1 1 0 0 1 0 1 1 0 0 0 1
9 8 6 5 5 5 5 5 4 4 4 3 3 3 3 3 3 2 2 3 3 2 1 1 1 1 1 1 1 1 1 1 0 0 1 1 1 1 1 0 0 0 1
8 8 8 6 5 5 5 4 4 4 4 4 3 3 3 3 3 2 2 2 3 3 2 1 1 1 1 0 0 1 1 1 0 1 1 1 0 1 0 0 1 1 1
8 7 7 6 5 5 5 4 4 4 4 4 3 2 2 2 3 2 2 2 2 2 2 1 1 1 1 0 1 1 0 1 1 1 1 0 1 1 1 1 0 1 2
7 6 6 6 5 6 5 5 5 4 4 4 3 3 3 2 2 3 2 2 2 2 2 2 2 1 2 1 1 1 1 1 1 2 1 1 1 1 1 2 2 2 2
6 5 4 4 3 4 4 4 4 4 4 4 3 3 3 3 2 2 2 2 2 2 2 2 1 1 2 1 1 1 1 1 1 2 2 2 1 1 0 1 2 3 3
5 5 5 4 3 3 4 5 4 3 3 3 3 3 3 3 3 2 2 2 2 2 2 2 2 2 3 2 1 1 1 0 2 2 2 2 3 3 1 0 2 3 5
4 4 5 4 3 2 4 5 4 3 3 3 3 2 3 3 3 3 3 2 2 2 2 2 2 3 3 2 1 2 1 1 2 3 3 3 3 4 2 2 2 4 5
4 5 5 4 3 3 4 3 2 3 3 3 2 2 2 3 3 3 2 2 1 1 1 1 2 2 3 2 2 1 2 2 2 2 3 3 4 3 3 3 4 6 4
4 4 4 3 2 3 4 3 2 3 2 3 2 2 2 2 2 2 2 2 2 1 1 1 2 2 2 2 3 3 3 3 3 3 3 3 4 3 3 3 4 5 2
4 3 4 3 1 1 3 3 3 2 2 2 2 2 2 1 2 2 2 1 1 1 1 1 3 3 3 3 3 3 3 3 3 3 4 4 4 4 3 4 4 2 0
3 3 4 3 1 0 1 2 2 2 2 2 2 2 2 1 1 1 2 2 2 2 2 2 3 4 3 3 3 2 2 2 2 2 3 3 3 2 3 3 2 1 2
3 3 3 3 1 1 1 1 1 1 1 1 1 1 1 2 1 1 2 3 3 4 4 4 4 4 5 6 6 4 3 3 3 1 1 1 1 2 2 2 2 2 2
3 3 2 2 1 1 1 2 1 0 2 1 1 1 1 1 1 1 2 3 3 4 6 7 6 5 7 7 6 6 6 4 3 2 1 2 2 3 3 3 3 2 3
Wind_Direction
159 150 148 146 138 134 130 129 128 131 121 110 104 96 94 88 81 87 108 119 120 120 113 104 89 97 116 149 133 116 105 100 109 83 36 357 343 232 197 189 181 197 205
150 146 147 150 148 149 147 143 145 143 141 140 140 136 133 127 139 110 93 125 130 134 125 117 115 116 110 79 76 100 105 169 139 125 102 13 353 344 256 201 198 208 205
164 160 156 155 150 154 159 157 156 149 148 139 114 92 68 45 45 50 54 50 111 113 112 117 124 126 132 132 134 128 136 185 278 160 150 152 217 299 333 296 220 201 200
158 156 154 157 163 165 159 149 151 148 150 139 132 133 134 143 190 178 156 343 86 114 132 132 136 137 136 149 206 164 150 145 242 290 201 181 170 161 305 333 320 268 213
161 167 167 164 159 156 149 143 140 140 142 140 144 140 135 152 146 112 100 70 44 90 133 131 132 133 144 169 185 143 121 148 176 197 210 120 114 146 164 258 312 338 325
164 166 163 152 147 142 142 144 142 145 148 146 145 146 145 143 128 128 135 73 29 39 226 129 130 156 178 184 182 166 141 157 160 172 158 159 164 176 164 197 242 285 302
156 155 152 149 152 150 153 149 146 152 158 154 153 153 153 151 158 171 174 168 151 210 239 188 180 187 205 178 149 122 140 154 144 166 175 186 209 186 163 161 210 261 289
157 159 159 162 162 160 159 154 154 154 162 165 168 158 152 156 168 176 172 176 187 199 187 174 162 136 102 141 137 116 126 106 109 86 124 158 282 179 168 169 163 274 319
148 154 154 153 157 159 163 163 160 162 166 172 169 160 154 152 167 176 170 171 184 178 180 180 158 146 106 119 127 112 139 102 96 79 75 34 320 37 141 162 170 173 239
136 128 133 145 156 163 160 153 161 169 161 155 168 166 161 165 174 159 164 175 191 192 145 104 107 91 85 109 129 141 128 109 259 170 81 335 306 1 3 201 188 169 179
138 134 134 145 156 150 145 142 140 135 141 148 149 161 165 168 158 158 185 182 172 130 121 118 105 85 64 81 112 150 148 143 294 347 63 330 337 7 340 350 145 174 162
147 137 126 124 139 141 141 146 150 143 148 145 137 165 170 160 157 164 184 161 139 143 158 136 120 106 80 55 95 145 114 136 154 338 49 342 6 12 346 31 26 259 180
142 134 127 133 147 145 144 145 146 146 139 133 129 150 175 168 169 173 167 147 135 129 137 125 132 130 119 113 135 144 132 129 153 154 140 281 48 348 314 358 15 312 19
150 149 153 158 159 154 158 155 149 145 141 138 143 170 186 187 187 176 162 154 146 152 189 187 157 160 152 164 249 173 140 153 177 194 197 246 201 218 258 323 314 77 50
154 159 165 167 162 159 162 163 158 160 157 150 152 182 186 184 179 165 170 169 163 169 185 187 171 175 166 196 159 172 142 149 190 297 273 265 141 114 180 105 191 156 162
166 165 166 167 164 166 167 167 169 174 161 152 159 167 159 175 186 186 176 166 170 165 173 179 180 186 256 261 147 166 189 202 200 241 282 296 52 356 340 325 262 164 183
164 166 174 177 182 185 178 175 179 170 163 164 169 169 170 169 190 190 169 184 193 179 178 190 169 199 262 248 201 181 176 218 221 212 212 254 330 352 336 327 339 314 280
156 165 167 166 177 167 159 158 155 158 165 171 179 181 176 172 170 168 183 202 204 197 203 207 196 219 254 238 210 156 137 228 248 221 206 203 255 282 273 299 322 301 289
154 161 162 151 152 159 152 140 140 153 159 170 189 191 181 180 179 181 196 197 190 208 214 199 186 219 262 271 211 162 157 286 287 265 237 218 233 270 275 242 291 303 299
130 136 137 127 141 168 152 142 154 159 181 192 191 191 187 185 191 201 204 199 191 209 206 200 204 217 243 276 231 159 164 237 283 286 269 256 264 271 259 227 237 272 281
130 131 131 134 155 159 141 143 157 194 209 189 174 171 172 181 191 199 203 198 190 178 186 204 237 237 247 265 249 195 197 217 242 260 270 275 282 277 262 239 231 249 263
116 124 129 136 151 139 131 147 200 220 196 175 168 172 178 184 182 181 198 182 161 159 188 229 273 276 271 257 251 235 231 230 221 245 255 263 275 271 270 260 263 271 284
120 116 118 111 95 129 145 171 224 213 179 168 178 184 184 185 167 170 181 176 168 176 217 232 257 274 272 260 252 246 251 252 230 244 266 281 287 286 277 283 296 300 257
126 119 112 104 81 32 167 211 230 208 163 174 202 201 181 185 169 174 176 183 197 205 214 232 252 262 267 259 252 252 253 263 257 265 286 297 298 298 298 310 307 267 241
126 127 126 122 115 33 11 316 283 131 136 163 201 214 194 180 180 201 218 213 217 209 210 226 229 238 259 258 238 222 232 227 232 233 310 332 333 325 308 295 281 261 262
126 116 112 114 105 67 7 340 334 78 143 155 224 232 215 206 205 218 306 306 268 252 232 224 227 243 247 259 250 240 234 223 195 155 223 249 247 248 256 258 263 258 251
Height
1517 1518 1520 1521 1522 1523 1524 1524 1525 1526 1527 1527 1528 1528 1529 1529 1529 1529 1529 1529 1529 1529 1528 1528 1528 1528 1528 1528 1529 1529 1529 1529 1530 1530 1530 1530 1530 1530 1530 1530 1530 1530 1531
1517 1518 1520 1521 1522 1522 1523 1524 1525 1526 1527 1528 1529 1529 1530 1530 1530 1530 1530 1530 1529 1529 1529 1529 1529 1529 1529 1529 1529 1529 1529 1529 1530 1529 1529 1529 1531 1530 1530 1529 1529 1530 1530
1515 1517 1519 1520 1521 1522 1523 1524 1525 1526 1528 1528 1529 1530 1530 1530 1530 1530 1530 1530 1530 1529 1529 1529 1529 1529 1529 1528 1528 1529 1528 1528 1529 1529 1529 1529 1528 1529 1529 1529 1529 1529 1528
1515 1517 1518 1519 1521 1522 1523 1524 1525 1526 1528 1528 1529 1529 1530 1530 1530 1530 1530 1530 1530 1530 1529 1529 1529 1528 1528 1528 1528 1528 1528 1528 1528 1528 1528 1528 1528 1528 1528 1528 1528 1528 1528
1514 1515 1516 1517 1519 1521 1523 1524 1525 1526 1527 1528 1529 1529 1530 1530 1530 1531 1530 1530 1530 1530 1529 1529 1528 1528 1528 1528 1527 1527 1527 1527 1527 1527 1527 1527 1527 1527 1527 1526 1527 1527 1526
1513 1514 1516 1518 1519 1521 1522 1523 1524 1525 1526 1527 1528 1529 1529 1529 1530 1530 1530 1529 1529 1529 1529 1528 1528 1527 1527 1527 1527 1527 1526 1526 1526 1526 1526 1526 1525 1525 1525 1525 1525 1524 1525
1512 1514 1516 1517 1518 1520 1521 1522 1523 1524 1525 1526 1527 1527 1528 1528 1529 1529 1529 1529 1528 1528 1528 1527 1527 1526 1526 1526 1526 1525 1525 1525 1525 1525 1525 1525 1524 1524 1524 1524 1523 1523 1523
1511 1512 1514 1515 1517 1518 1520 1521 1522 1523 1524 1525 1525 1526 1527 1527 1528 1528 1528 1528 1527 1527 1527 1527 1526 1526 1525 1525 1524 1524 1524 1524 1524 1524 1524 1524 1523 1523 1523 1523 1522 1521 1521
1510 1511 1513 1514 1516 1517 1518 1520 1520 1521 1522 1523 1525 1525 1525 1526 1526 1527 1527 1526 1526 1526 1526 1526 1525 1524 1524 1524 1523 1523 1523 1523 1523 1523 1522 1522 1522 1522 1522 1522 1521 1521 1519
1510 1511 1512 1513 1515 1517 1518 1519 1520 1520 1521 1522 1523 1524 1523 1524 1525 1525 1525 1525 1525 1525 1525 1524 1524 1523 1523 1523 1522 1522 1521 1521 1521 1521 1521 1521 1520 1520 1520 1520 1519 1519 1518
1509 1510 1512 1513 1515 1516 1517 1518 1519 1520 1520 1521 1522 1523 1523 1523 1523 1523 1523 1524 1523 1523 1523 1523 1522 1522 1522 1521 1521 1520 1520 1520 1519 1519 1519 1519 1519 1518 1518 1517 1517 1517 1516
1508 1509 1511 1512 1514 1515 1515 1516 1517 1518 1519 1519 1520 1521 1521 1521 1521 1521 1522 1522 1521 1521 1521 1521 1520 1520 1520 1519 1519 1519 1518 1518 1517 1517 1517 1517 1517 1516 1516 1515 1514 1514 1514
1507 1508 1510 1511 1512 1513 1514 1515 1516 1517 1517 1518 1518 1518 1519 1519 1519 1519 1520 1520 1520 1520 1519 1519 1518 1518 1518 1518 1517 1517 1516 1516 1516 1515 1515 1514 1514 1514 1513 1513 1512 1511 1511
1505 1507 1508 1510 1511 1512 1513 1514 1515 1516 1516 1516 1516 1517 1516 1516 1517 1517 1517 1517 1517 1517 1517 1517 1516 1516 1516 1516 1515 1515 1515 1514 1514 1513 1513 1512 1512 1511 1511 1510 1509 1509 1508
1504 1505 1506 1507 1509 1510 1512 1513 1513 1514 1514 1515 1515 1514 1515 1515 1515 1515 1514 1514 1514 1514 1514 1514 1514 1513 1513 1513 1513 1513 1513 1512 1511 1511 1511 1510 1510 1509 1508 1507 1507 1506 1505
1503 1503 1505 1506 1507 1509 1510 1511 1512 1512 1513 1513 1512 1513 1513 1513 1513 1512 1512 1512 1512 1512 1512 1511 1511 1511 1511 1511 1511 1511 1510 1509 1509 1508 1508 1508 1507 1506 1506 1505 1504 1504 1503
1502 1503 1503 1504 1506 1508 1508 1509 1509 1510 1510 1510 1510 1511 1511 1511 1510 1510 1510 1509 1509 1509 1508 1508 1508 1508 1508 1508 1508 1508 1507 1507 1506 1506 1505 1505 1504 1504 1503 1502 1502 1501 1500
1501 1502 1503 1503 1504 1505 1506 1507 1508 1508 1508 1508 1508 1508 1508 1508 1509 1508 1508 1507 1506 1506 1506 1505 1505 1505 1505 1505 1505 1505 1504 1504 1503 1503 1502 1502 1501 1501 1500 1499 1498 1498 1497
1499 1500 1502 1502 1502 1503 1503 1504 1505 1505 1505 1505 1506 1506 1506 1506 1506 1506 1505 1505 1504 1503 1503 1502 1502 1502 1503 1503 1502 1502 1501 1501 1500 1500 1500 1499 1499 1498 1497 1496 1495 1494 1493
1497 1499 1500 1500 1500 1500 1501 1502 1502 1502 1502 1502 1503 1503 1503 1503 1503 1503 1502 1502 1501 1501 1500 1499 1499 1500 1500 1500 1499 1499 1498 1497 1497 1497 1497 1496 1496 1495 1494 1493 1492 1490 1490
1496 1497 1498 1498 1498 1499 1499 1499 1499 1499 1499 1499 1499 1499 1499 1500 1500 1500 1499 1499 1498 1498 1497 1497 1496 1496 1496 1496 1496 1496 1495 1495 1494 1494 1493 1493 1492 1492 1491 1490 1489 1488 1487
1495 1496 1496 1496 1496 1497 1497 1496 1496 1496 1496 1496 1496 1496 1495 1496 1496 1496 1496 1496 1496 1495 1494 1494 1493 1493 1493 1493 1492 1492 1492 1492 1491 1490 1490 1489 1489 1488 1488 1487 1486 1485 1484
1493 1494 1494 1494 1494 1495 1495 1494 1494 1494 1494 1493 1493 1492 1492 1492 1492 1493 1493 1493 1493 1492 1492 1491 1491 1490 1489 1489 1489 1489 1489 1488 1488 1487 1486 1486 1485 1485 1484 1483 1483 1482 1481
1492 1492 1492 1492 1492 1492 1492 1492 1491 1490 1490 1490 1490 1490 1489 1489 1490 1490 1490 1490 1490 1489 1489 1489 1488 1488 1487 1487 1487 1486 1486 1485 1484 1484 1483 1483 1482 1481 1480 1480 1479 1478 1477
1490 1490 1490 1489 1489 1489 1489 1489 1488 1487 1487 1487 1487 1487 1487 1487 1487 1487 1487 1487 1487 1487 1486 1485 1485 1484 1483 1483 1483 1482 1482 1481 1481 1480 1479 1478 1478 1477 1476 1476 1475 1474 1474
1488 1488 1488 1487 1487 1487 1486 1486 1486 1485 1485 1485 1485 1485 1484 1484 1484 1484 1483 1483 1484 1483 1482 1482 1481 1480 1480 1480 1479 1478 1477 1477 1477 1476 1475 1474 1474 1473 1472 1472 1471 1470 1470